Regional Weather Roundup
Issued by NWS

Home | Current Version | Previous Version | Graphics & Text | Print | Product List | Glossary On
Versions: 1 2 3 4 5 6 7 8 9 10 11 12 13 14 15 16 17 18 19 20 21 22 23 24 25 26 27 28 29 30 31 32 33 34 35 36 37 38 39 40 41 42 43 44 45 46 47 48 49 50
000
ASUS43 KFSD 160402
RWRSD

WEATHER ROUNDUP FOR SOUTH DAKOTA
NATIONAL WEATHER SERVICE SIOUX FALLS SD
1100 PM CDT TUE AUG 15 2017

NOTE: "FAIR" INDICATES FEW OR NO CLOUDS BELOW 12,000 FEET WITH NO
SIGNIFICANT WEATHER AND/OR OBSTRUCTIONS TO VISIBILITY.


SDZ001>005-009-010-012>017-160500-
NORTHWEST AND NORTH CENTRAL SOUTH DAKOTA

CITY           SKY/WX    TMP DP  RH WIND       PRES   REMARKS
BUFFALO          N/A     62  57  83 NW6       29.84F
FAITH            N/A     63  63 100 N6        29.87F
MOBRIDGE       CLOUDY    66  65  96 CALM      29.80F
$$

SDZ012>016-024>037-041>051-057-063-072>074-160500-
SOUTHWEST AND SOUTH CENTRAL SOUTH DAKOTA

CITY           SKY/WX    TMP DP  RH WIND       PRES   REMARKS
RAPID CTY ARPT CLOUDY    64  56  75 N14       29.90R
PIERRE         CLOUDY    67  65  93 NE6       29.81F
CUSTER         CLOUDY    57  52  83 NE7       29.99R
ELLSWORTH AFB  CLOUDY    65  58  77 N18       29.90R
PHILIP         CLOUDY    68  63  84 N7        29.85R
PINE RIDGE     CLOUDY    64  62  93 NE5       29.91S
SPEARFISH      CLOUDY    63  54  72 CALM      29.97R
WINNER         FAIR      70  66  87 SE9       29.79F
$$

SDZ004>011-016>023-039-040-160500-
NORTHEAST SOUTH DAKOTA

CITY           SKY/WX    TMP DP  RH WIND       PRES   REMARKS
ABERDEEN       RAIN      66  65  96 SE3       29.86R FOG
WATERTOWN      MOCLDY    64  62  93 SE8       29.87S
BROOKINGS      CLOUDY    65  62  90 SE10      29.88R
SISSETON         N/A     66  62  87 SE14      29.86S
$$

SDZ017-020-022-023-036>040-048>070-160500-
SOUTHEAST SOUTH DAKOTA

CITY           SKY/WX    TMP DP  RH WIND       PRES   REMARKS
SIOUX FALLS    DRIZZLE   66  65  96 E10       29.85F
HURON          CLOUDY    67  64  90 SE10      29.84S
CHAMBERLAIN    CLOUDY    68  68  99 E9        29.83R
MITCHELL       CLOUDY    67  65  93 E10       29.83F
$$

ABBREVIATIONS USED IN REMARKS
   TC - TEMPERATURE IN CELSIUS
  WCI - WIND CHILL INDEX
   HX - HEAT INDEX
  VSB - VISIBILITY





USA.gov is the U.S. government's official web portal to all federal, state and local government web resources and services.